Time,TemperatureF,DewpointF,PressureIn,WindDirection,WindDirectionDegrees,WindSpeedMPH,WindSpeedGustMPH,Humidity,HourlyPrecipIn,Conditions,Clouds,dailyrainin,SoftwareType,DateUTC
2014-04-17 00:00:00,65.5,45.8,29.78,ENE,62,1.0,1.0,49,0.00,,,0.00,Wunderground v.1.15,2014-04-17 07:00:00,
2014-04-17 00:09:00,65.4,46.3,29.78,ENE,58,1.0,1.0,50,0.00,,,0.00,Wunderground v.1.15,2014-04-17 07:09:00,
2014-04-17 00:14:00,65.3,46.2,29.79,ENE,70,1.0,1.0,50,0.00,,,0.00,Wunderground v.1.15,2014-04-17 07:14:00,
2014-04-17 00:19:00,65.1,46.0,29.79,NE,53,1.0,1.0,50,0.00,,,0.00,Wunderground v.1.15,2014-04-17 07:19:00,
2014-04-17 00:24:00,64.9,46.3,29.79,ENE,62,1.0,1.0,51,0.00,,,0.00,Wunderground v.1.15,2014-04-17 07:24:00,
2014-04-17 00:29:00,64.8,46.2,29.79,ENE,65,1.0,1.0,51,0.00,,,0.00,Wunderground v.1.15,2014-04-17 07:29:00,
2014-04-17 00:39:00,64.3,46.8,29.78,ENE,62,1.0,1.0,53,0.00,,,0.00,Wunderground v.1.15,2014-04-17 07:39:00,
2014-04-17 00:44:00,63.9,46.4,29.78,NE,56,1.0,1.0,53,0.00,,,0.00,Wunderground v.1.15,2014-04-17 07:44:00,
2014-04-17 00:49:00,63.9,46.4,29.78,ENE,62,1.0,1.0,53,0.00,,,0.00,Wunderground v.1.15,2014-04-17 07:49:00,
2014-04-17 00:54:00,64.0,46.5,29.78,ENE,58,1.0,2.0,53,0.00,,,0.00,Wunderground v.1.15,2014-04-17 07:54:00,
2014-04-17 01:00:00,64.0,46.5,29.78,ENE,64,1.0,1.0,53,0.00,,,0.00,Wunderground v.1.15,2014-04-17 08:00:00,
2014-04-17 01:09:00,64.0,46.5,29.77,ENE,69,1.0,1.0,53,0.00,,,0.00,Wunderground v.1.15,2014-04-17 08:09:00,
2014-04-17 01:14:00,64.0,46.5,29.77,NE,53,1.0,1.0,53,0.00,,,0.00,Wunderground v.1.15,2014-04-17 08:14:00,
2014-04-17 01:19:00,63.9,46.4,29.78,ENE,60,1.0,1.0,53,0.00,,,0.00,Wunderground v.1.15,2014-04-17 08:19:00,
2014-04-17 01:24:00,63.8,46.3,29.77,ENE,57,1.0,1.0,53,0.00,,,0.00,Wunderground v.1.15,2014-04-17 08:24:00,
2014-04-17 01:29:00,63.9,46.4,29.77,ENE,68,1.0,1.0,53,0.00,,,0.00,Wunderground v.1.15,2014-04-17 08:29:00,
2014-04-17 01:34:00,64.1,46.1,29.77,ENE,65,1.0,1.0,52,0.00,,,0.00,Wunderground v.1.15,2014-04-17 08:34:00,
2014-04-17 01:44:00,64.0,46.5,29.77,ENE,64,1.0,2.0,53,0.00,,,0.00,Wunderground v.1.15,2014-04-17 08:44:00,
2014-04-17 01:49:00,63.9,46.4,29.77,ENE,63,1.0,1.0,53,0.00,,,0.00,Wunderground v.1.15,2014-04-17 08:49:00,
2014-04-17 01:54:00,63.8,46.3,29.77,ENE,67,1.0,1.0,53,0.00,,,0.00,Wunderground v.1.15,2014-04-17 08:54:00,
2014-04-17 02:00:00,63.9,45.9,29.77,ENE,65,1.0,1.0,52,0.00,,,0.00,Wunderground v.1.15,2014-04-17 09:00:00,
2014-04-17 02:09:00,63.8,46.3,29.76,ENE,70,1.0,1.0,53,0.00,,,0.00,Wunderground v.1.15,2014-04-17 09:09:00,
2014-04-17 02:15:00,63.7,46.2,29.76,East,97,1.0,2.0,53,0.00,,,0.00,Wunderground v.1.15,2014-04-17 09:15:00,
2014-04-17 02:20:00,63.7,46.2,29.76,ENE,58,1.0,1.0,53,0.00,,,0.00,Wunderground v.1.15,2014-04-17 09:20:00,
2014-04-17 02:25:00,63.5,46.1,29.75,ENE,58,0.0,1.0,53,0.00,,,0.00,Wunderground v.1.15,2014-04-17 09:25:00,
2014-04-17 02:30:00,63.3,46.4,29.75,ENE,63,0.0,1.0,54,0.00,,,0.00,Wunderground v.1.15,2014-04-17 09:30:00,
2014-04-17 02:35:00,63.3,46.4,29.75,ENE,71,0.0,1.0,54,0.00,,,0.00,Wunderground v.1.15,2014-04-17 09:35:00,
2014-04-17 02:40:00,63.1,46.7,29.75,East,100,0.0,1.0,55,0.00,,,0.00,Wunderground v.1.15,2014-04-17 09:40:00,
2014-04-17 02:50:00,62.8,46.4,29.75,East,80,0.0,0.0,55,0.00,,,0.00,Wunderground v.1.15,2014-04-17 09:50:00,
2014-04-17 02:55:00,62.7,46.3,29.75,East,80,0.0,0.0,55,0.00,,,0.00,Wunderground v.1.15,2014-04-17 09:55:00,
2014-04-17 03:00:00,62.6,46.2,29.75,ENE,77,0.0,0.0,55,0.00,,,0.00,Wunderground v.1.15,2014-04-17 10:00:00,
2014-04-17 03:10:00,62.9,46.0,29.76,ENE,75,1.0,1.0,54,0.00,,,0.00,Wunderground v.1.15,2014-04-17 10:10:00,
2014-04-17 03:20:00,62.9,45.0,29.76,East,101,1.0,1.0,52,0.00,,,0.00,Wunderground v.1.15,2014-04-17 10:20:00,
2014-04-17 03:25:00,62.9,45.5,29.76,East,101,1.0,1.0,53,0.00,,,0.00,Wunderground v.1.15,2014-04-17 10:25:00,
2014-04-17 03:30:00,62.8,45.9,29.76,East,100,0.0,0.0,54,0.00,,,0.00,Wunderground v.1.15,2014-04-17 10:30:00,
2014-04-17 03:35:00,62.3,46.4,29.76,East,79,0.0,0.0,56,0.00,,,0.00,Wunderground v.1.15,2014-04-17 10:35:00,
2014-04-17 03:40:00,61.8,45.9,29.76,East,84,1.0,1.0,56,0.00,,,0.00,Wunderground v.1.15,2014-04-17 10:40:00,
2014-04-17 03:45:00,61.3,45.9,29.76,East,83,0.0,1.0,57,0.00,,,0.00,Wunderground v.1.15,2014-04-17 10:45:00,
2014-04-17 03:54:00,60.8,45.9,29.76,ENE,73,0.0,1.0,58,0.00,,,0.00,Wunderground v.1.15,2014-04-17 10:54:00,
2014-04-17 04:00:00,60.6,46.2,29.76,East,98,1.0,1.0,59,0.00,,,0.00,Wunderground v.1.15,2014-04-17 11:00:00,
2014-04-17 04:09:00,60.3,46.8,29.75,East,79,1.0,1.0,61,0.00,,,0.00,Wunderground v.1.15,2014-04-17 11:09:00,
2014-04-17 04:14:00,60.3,46.4,29.75,East,96,0.0,1.0,60,0.00,,,0.00,Wunderground v.1.15,2014-04-17 11:14:00,
2014-04-17 04:24:00,60.4,46.0,29.75,East,98,0.0,0.0,59,0.00,,,0.00,Wunderground v.1.15,2014-04-17 11:24:00,
2014-04-17 04:29:00,60.4,46.0,29.75,ESE,106,0.0,0.0,59,0.00,,,0.00,Wunderground v.1.15,2014-04-17 11:29:00,
2014-04-17 04:34:00,60.3,46.4,29.75,East,96,1.0,1.0,60,0.00,,,0.00,Wunderground v.1.15,2014-04-17 11:34:00,
2014-04-17 04:39:00,60.1,46.2,29.75,East,84,1.0,1.0,60,0.00,,,0.00,Wunderground v.1.15,2014-04-17 11:39:00,
2014-04-17 04:44:00,59.9,46.4,29.75,East,84,0.0,1.0,61,0.00,,,0.00,Wunderground v.1.15,2014-04-17 11:44:00,
2014-04-17 04:49:00,59.9,45.5,29.75,ENE,73,0.0,0.0,59,0.00,,,0.00,Wunderground v.1.15,2014-04-17 11:49:00,
2014-04-17 05:00:00,60.4,46.0,29.75,East,87,0.0,0.0,59,0.00,,,0.00,Wunderground v.1.15,2014-04-17 12:00:00,
2014-04-17 05:09:00,60.4,46.0,29.75,ENE,78,0.0,0.0,59,0.00,,,0.00,Wunderground v.1.15,2014-04-17 12:09:00,
2014-04-17 05:14:00,60.3,45.9,29.75,East,92,0.0,0.0,59,0.00,,,0.00,Wunderground v.1.15,2014-04-17 12:14:00,
2014-04-17 05:19:00,60.2,45.8,29.75,ESE,110,0.0,1.0,59,0.00,,,0.00,Wunderground v.1.15,2014-04-17 12:19:00,
2014-04-17 05:29:00,60.0,46.1,29.75,East,96,0.0,1.0,60,0.00,,,0.00,Wunderground v.1.15,2014-04-17 12:29:00,
2014-04-17 05:34:00,59.9,46.0,29.75,East,101,1.0,1.0,60,0.00,,,0.00,Wunderground v.1.15,2014-04-17 12:34:00,
2014-04-17 05:39:00,59.7,45.8,29.75,East,100,0.0,0.0,60,0.00,,,0.00,Wunderground v.1.15,2014-04-17 12:39:00,
2014-04-17 05:44:00,59.5,45.6,29.74,ENE,75,0.0,0.0,60,0.00,,,0.00,Wunderground v.1.15,2014-04-17 12:44:00,
2014-04-17 05:49:00,59.5,46.0,29.75,ENE,76,0.0,0.0,61,0.00,,,0.00,Wunderground v.1.15,2014-04-17 12:49:00,
2014-04-17 05:54:00,59.3,45.8,29.75,ENE,71,0.0,0.0,61,0.00,,,0.00,Wunderground v.1.15,2014-04-17 12:54:00,
2014-04-17 06:00:00,59.2,45.3,29.75,East,88,0.0,0.0,60,0.00,,,0.00,Wunderground v.1.15,2014-04-17 13:00:00,
2014-04-17 06:09:00,59.4,45.1,29.75,East,95,0.0,1.0,59,0.00,,,0.00,Wunderground v.1.15,2014-04-17 13:09:00,
2014-04-17 06:14:00,59.9,45.1,29.75,East,91,0.0,1.0,58,0.00,,,0.00,Wunderground v.1.15,2014-04-17 13:14:00,
2014-04-17 06:19:00,59.8,45.4,29.75,ENE,78,0.0,0.0,59,0.00,,,0.00,Wunderground v.1.15,2014-04-17 13:19:00,
2014-04-17 06:24:00,59.5,45.2,29.75,ESE,105,1.0,1.0,59,0.00,,,0.00,Wunderground v.1.15,2014-04-17 13:24:00,
2014-04-17 06:30:00,59.5,45.2,29.75,East,82,0.0,0.0,59,0.00,,,0.00,Wunderground v.1.15,2014-04-17 13:30:00,
2014-04-17 06:35:00,59.6,45.2,29.75,East,82,0.0,0.0,59,0.00,,,0.00,Wunderground v.1.15,2014-04-17 13:35:00,
2014-04-17 06:40:00,59.7,45.3,29.75,ESE,103,0.0,0.0,59,0.00,,,0.00,Wunderground v.1.15,2014-04-17 13:40:00,
2014-04-17 06:45:00,59.6,45.2,29.75,ENE,76,0.0,0.0,59,0.00,,,0.00,Wunderground v.1.15,2014-04-17 13:45:00,
2014-04-17 06:50:00,59.3,45.4,29.75,ENE,77,0.0,0.0,60,0.00,,,0.00,Wunderground v.1.15,2014-04-17 13:50:00,
2014-04-17 06:55:00,59.4,45.5,29.75,ENE,77,0.0,0.0,60,0.00,,,0.00,Wunderground v.1.15,2014-04-17 13:55:00,
2014-04-17 07:00:00,59.2,44.9,29.76,ENE,77,0.0,0.0,59,0.00,,,0.00,Wunderground v.1.15,2014-04-17 14:00:00,
2014-04-17 07:10:00,59.1,46.1,29.76,East,91,0.0,0.0,62,0.00,,,0.00,Wunderground v.1.15,2014-04-17 14:10:00,
2014-04-17 07:15:00,58.9,45.9,29.76,East,91,0.0,0.0,62,0.00,,,0.00,Wunderground v.1.15,2014-04-17 14:15:00,
2014-04-17 07:20:00,58.9,45.9,29.76,East,92,0.0,0.0,62,0.00,,,0.00,Wunderground v.1.15,2014-04-17 14:20:00,
2014-04-17 07:25:00,59.1,46.1,29.77,East,91,0.0,0.0,62,0.00,,,0.00,Wunderground v.1.15,2014-04-17 14:25:00,
2014-04-17 07:30:00,59.1,46.9,29.77,ESE,110,0.0,0.0,64,0.00,,,0.00,Wunderground v.1.15,2014-04-17 14:30:00,
2014-04-17 07:39:00,59.4,48.0,29.77,ENE,68,1.0,1.0,66,0.00,,,0.00,Wunderground v.1.15,2014-04-17 14:39:00,
2014-04-17 07:44:00,59.4,48.4,29.78,ENE,73,0.0,1.0,67,0.00,,,0.00,Wunderground v.1.15,2014-04-17 14:44:00,
2014-04-17 07:49:00,59.4,48.4,29.78,ENE,75,0.0,0.0,67,0.00,,,0.00,Wunderground v.1.15,2014-04-17 14:49:00,
2014-04-17 07:54:00,59.5,48.5,29.78,East,82,0.0,0.0,67,0.00,,,0.00,Wunderground v.1.15,2014-04-17 14:54:00,
2014-04-17 08:00:00,59.7,48.3,29.78,East,91,0.0,1.0,66,0.00,,,0.00,Wunderground v.1.15,2014-04-17 15:00:00,
2014-04-17 08:09:00,61.6,48.9,29.78,East,89,0.0,1.0,63,0.00,,,0.00,Wunderground v.1.15,2014-04-17 15:09:00,
2014-04-17 08:14:00,62.8,49.6,29.78,East,88,0.0,1.0,62,0.00,,,0.00,Wunderground v.1.15,2014-04-17 15:14:00,
2014-04-17 08:19:00,63.4,49.7,29.78,ENE,71,0.0,1.0,61,0.00,,,0.00,Wunderground v.1.15,2014-04-17 15:19:00,
2014-04-17 08:24:00,63.8,49.6,29.78,ESE,120,0.0,1.0,60,0.00,,,0.00,Wunderground v.1.15,2014-04-17 15:24:00,
2014-04-17 08:29:00,63.9,49.7,29.78,ESE,120,0.0,0.0,60,0.00,,,0.00,Wunderground v.1.15,2014-04-17 15:29:00,
2014-04-17 08:34:00,64.3,51.0,29.79,SW,226,0.0,1.0,62,0.00,,,0.00,Wunderground v.1.15,2014-04-17 15:34:00,
2014-04-17 08:44:00,64.4,52.0,29.79,SSW,213,0.0,1.0,64,0.00,,,0.00,Wunderground v.1.15,2014-04-17 15:44:00,
2014-04-17 08:50:00,64.3,51.4,29.78,SSE,148,0.0,0.0,63,0.00,,,0.00,Wunderground v.1.15,2014-04-17 15:50:00,
2014-04-17 08:55:00,64.5,51.2,29.77,East,101,1.0,1.0,62,0.00,,,0.00,Wunderground v.1.15,2014-04-17 15:55:00,
2014-04-17 09:00:00,64.8,51.5,29.77,East,100,1.0,1.0,62,0.00,,,0.00,Wunderground v.1.15,2014-04-17 16:00:00,
2014-04-17 09:09:00,65.9,52.1,29.78,East,100,0.0,0.0,61,0.00,,,0.00,Wunderground v.1.15,2014-04-17 16:09:00,
2014-04-17 09:14:00,66.6,51.8,29.77,East,97,0.0,0.0,59,0.00,,,0.00,Wunderground v.1.15,2014-04-17 16:14:00,
2014-04-17 09:19:00,67.3,52.0,29.78,East,98,0.0,0.0,58,0.00,,,0.00,Wunderground v.1.15,2014-04-17 16:19:00,
2014-04-17 09:25:00,67.9,52.1,29.78,West,276,0.0,0.0,57,0.00,,,0.00,Wunderground v.1.15,2014-04-17 16:25:00,
2014-04-17 09:30:00,68.4,52.6,29.78,SW,215,0.0,0.0,57,0.00,,,0.00,Wunderground v.1.15,2014-04-17 16:30:00,
2014-04-17 09:35:00,68.9,51.6,29.78,SW,215,1.0,1.0,54,0.00,,,0.00,Wunderground v.1.15,2014-04-17 16:35:00,
2014-04-17 09:44:00,69.9,52.0,29.78,SW,232,1.0,1.0,53,0.00,,,0.00,Wunderground v.1.15,2014-04-17 16:44:00,
2014-04-17 09:49:00,70.2,52.3,29.78,WSW,255,1.0,1.0,53,0.00,,,0.00,Wunderground v.1.15,2014-04-17 16:49:00,
2014-04-17 10:00:00,70.3,53.4,29.78,ESE,114,2.0,2.0,55,0.00,,,0.00,Wunderground v.1.15,2014-04-17 17:00:00,
2014-04-17 10:09:00,70.5,52.5,29.79,SSW,210,2.0,3.0,53,0.00,,,0.00,Wunderground v.1.15,2014-04-17 17:09:00,
2014-04-17 10:14:00,70.6,52.6,29.79,SW,222,1.0,3.0,53,0.00,,,0.00,Wunderground v.1.15,2014-04-17 17:14:00,
2014-04-17 10:19:00,70.8,53.3,29.79,SSE,156,1.0,1.0,54,0.00,,,0.00,Wunderground v.1.15,2014-04-17 17:19:00,
2014-04-17 10:24:00,71.0,53.5,29.79,South,188,1.0,2.0,54,0.00,,,0.00,Wunderground v.1.15,2014-04-17 17:24:00,
2014-04-17 10:34:00,72.0,52.9,29.79,West,276,1.0,2.0,51,0.00,,,0.00,Wunderground v.1.15,2014-04-17 17:34:00,
2014-04-17 10:39:00,72.4,53.2,29.79,SSE,160,1.0,1.0,51,0.00,,,0.00,Wunderground v.1.15,2014-04-17 17:39:00,
2014-04-17 10:44:00,73.1,53.9,29.79,WNW,293,1.0,1.0,51,0.00,,,0.00,Wunderground v.1.15,2014-04-17 17:44:00,
2014-04-17 10:49:00,73.6,54.9,29.79,SSW,207,0.0,1.0,52,0.00,,,0.00,Wunderground v.1.15,2014-04-17 17:49:00,